When you browse on this site, cookies collect data to enhance your experience and personalize the content and advertising you see.
Visit our Privacy Policy to learn more. By continuing to use the site, you agree to this use of cookies and data.
  • In Portugal
  • List of Countries
  • For 7 days
  • Water Temperature
  • Satellite Maps
  • Weather Map
  • Weather Widgets
  • user-avatar
    Login

    Hourly Weather Sharan

    Today, 17 December, Monday

    Time Temperature Precipitation Wind Pressure Humidity
    00:00 +1°C° 0 mm 0 mps 587 mmHg 23%
    01:00 +1°C° 0 mm 0 mps 587 mmHg 23%
    02:00 0°C° 0 mm 0 mps 586 mmHg 23%
    03:00 0°C° 0 mm 0 mps 586 mmHg 23%
    04:00 0°C° 0 mm 0 mps 586 mmHg 23%
    05:00 0°C° 0 mm 0 mps 586 mmHg 23%
    06:00 0°C° 0 mm 0 mps 586 mmHg 23%
    07:00 0°C° 0 mm 0 mps 587 mmHg 23%
    08:00 0°C° 0 mm 0 mps 587 mmHg 23%
    09:00 +2°C° 0 mm 0 mps 588 mmHg 20%
    10:00 +5°C° 0 mm 0 mps 589 mmHg 17%
    11:00 +8°C° 0 mm 1 mps 590 mmHg 15%
    12:00 +9°C° 0 mm 1 mps 590 mmHg 14%
    13:00 +9°C° 0 mm 1 mps 590 mmHg 14%
    14:00 +10°C° 0 mm 1 mps 589 mmHg 14%
    15:00 +9°C° 0 mm 1 mps 589 mmHg 17%
    16:00 +7°C° 0 mm 1 mps 588 mmHg 19%
    17:00 +6°C° 0 mm 1 mps 587 mmHg 22%
    18:00 +5°C° 0 mm 1 mps 587 mmHg 23%
    19:00 +4°C° 0 mm 1 mps 587 mmHg 25%
    20:00 +2°C° 0 mm 0 mps 587 mmHg 26%
    21:00 +2°C° 0 mm 0 mps 587 mmHg 26%
    22:00 +1°C° 0 mm 0 mps 587 mmHg 25%
    23:00 +1°C° 0 mm 0 mps 587 mmHg 25%

    Tomorrow, 18 December, Tuesday

    Time Temperature Precipitation Wind Pressure Humidity
    00:00 +1°C° 0 mm 0 mps 586 mmHg 25%
    01:00 +1°C° 0 mm 0 mps 586 mmHg 25%
    02:00 +1°C° 0 mm 1 mps 586 mmHg 25%
    03:00 +1°C° 0 mm 1 mps 586 mmHg 25%
    04:00 +1°C° 0 mm 1 mps 585 mmHg 25%
    05:00 +1°C° 0 mm 1 mps 585 mmHg 26%
    06:00 +1°C° 0 mm 1 mps 585 mmHg 25%
    07:00 +1°C° 0 mm 1 mps 586 mmHg 25%
    08:00 +1°C° 0 mm 1 mps 586 mmHg 25%
    09:00 +3°C° 0 mm 1 mps 587 mmHg 22%
    10:00 +6°C° 0 mm 1 mps 588 mmHg 18%
    11:00 +8°C° 0 mm 1 mps 589 mmHg 15%
    12:00 +9°C° 0 mm 1 mps 589 mmHg 14%
    13:00 +9°C° 0 mm 1 mps 588 mmHg 13%
    14:00 +10°C° 0 mm 1 mps 588 mmHg 13%
    15:00 +9°C° 0 mm 1 mps 587 mmHg 15%
    16:00 +8°C° 0 mm 1 mps 587 mmHg 18%
    17:00 +7°C° 0 mm 1 mps 586 mmHg 20%
    18:00 +6°C° 0 mm 1 mps 586 mmHg 21%
    19:00 +5°C° 0 mm 1 mps 586 mmHg 21%
    20:00 +4°C° 0 mm 1 mps 586 mmHg 22%
    21:00 +4°C° 0 mm 1 mps 585 mmHg 21%
    22:00 +4°C° 0 mm 1 mps 585 mmHg 21%
    23:00 +3°C° 0 mm 1 mps 585 mmHg 21%

    Day after tomorrow, 19 December, Wednesday

    Time Temperature Precipitation Wind Pressure Humidity
    00:00 +3°C° 0 mm 1 mps 584 mmHg 21%
    01:00 +2°C° 0 mm 1 mps 584 mmHg 21%
    02:00 +2°C° 0 mm 1 mps 583 mmHg 21%
    03:00 +2°C° 0 mm 1 mps 583 mmHg 20%
    04:00 +1°C° 0 mm 1 mps 583 mmHg 20%
    05:00 +1°C° 0 mm 1 mps 583 mmHg 20%
    06:00 +1°C° 0 mm 1 mps 583 mmHg 20%
    07:00 +1°C° 0 mm 1 mps 583 mmHg 19%
    08:00 +1°C° 0 mm 1 mps 583 mmHg 19%
    09:00 +2°C° 0 mm 2 mps 584 mmHg 17%
    10:00 +4°C° 0 mm 2 mps 585 mmHg 15%
    11:00 +6°C° 0 mm 2 mps 586 mmHg 12%
    12:00 +7°C° 0 mm 3 mps 586 mmHg 12%
    13:00 +7°C° 0 mm 3 mps 586 mmHg 11%
    14:00 +8°C° 0 mm 3 mps 585 mmHg 11%
    15:00 +7°C° 0 mm 3 mps 585 mmHg 13%
    16:00 +6°C° 0 mm 2 mps 585 mmHg 15%
    17:00 +5°C° 0 mm 2 mps 584 mmHg 17%
    18:00 +4°C° 0 mm 2 mps 584 mmHg 19%
    19:00 +3°C° 0 mm 2 mps 584 mmHg 20%
    20:00 +2°C° 0 mm 2 mps 585 mmHg 21%
    21:00 +2°C° 0 mm 2 mps 584 mmHg 23%
    22:00 +2°C° 0 mm 1 mps 584 mmHg 24%
    23:00 +2°C° 0 mm 1 mps 584 mmHg 25%

    20 December, Thursday

    Time Temperature Precipitation Wind Pressure Humidity
    00:00 +2°C° 0 mm 1 mps 584 mmHg 26%
    01:00 +1°C° 0 mm 1 mps 584 mmHg 26%
    02:00 +1°C° 0 mm 1 mps 584 mmHg 27%
    03:00 +1°C° 0 mm 1 mps 584 mmHg 27%
    04:00 +1°C° 0 mm 1 mps 584 mmHg 28%
    05:00 0°C° 0 mm 1 mps 584 mmHg 28%
    06:00 0°C° 0 mm 1 mps 584 mmHg 28%
    07:00 0°C° 0 mm 1 mps 585 mmHg 28%
    08:00 0°C° 0 mm 1 mps 585 mmHg 29%
    09:00 +2°C° 0 mm 1 mps 586 mmHg 26%
    10:00 +4°C° 0 mm 1 mps 587 mmHg 23%
    11:00 +6°C° 0 mm 1 mps 588 mmHg 20%
    12:00 +7°C° 0 mm 1 mps 588 mmHg 19%
    13:00 +7°C° 0 mm 1 mps 587 mmHg 19%
    14:00 +7°C° 0 mm 2 mps 587 mmHg 18%
    15:00 +7°C° 0 mm 1 mps 586 mmHg 20%
    16:00 +6°C° 0 mm 1 mps 586 mmHg 23%
    17:00 +5°C° 0 mm 1 mps 585 mmHg 25%
    18:00 +4°C° 0 mm 1 mps 585 mmHg 27%
    19:00 +3°C° 0 mm 1 mps 585 mmHg 28%
    20:00 +2°C° 0 mm 1 mps 585 mmHg 30%
    21:00 +2°C° 0 mm 1 mps 585 mmHg 30%
    22:00 +2°C° 0 mm 1 mps 585 mmHg 31%
    23:00 +1°C° 0 mm 1 mps 585 mmHg 31%

    21 December, Friday

    Time Temperature Precipitation Wind Pressure Humidity
    00:00 +1°C° 0 mm 1 mps 584 mmHg 31%
    01:00 +1°C° 0 mm 1 mps 584 mmHg 32%
    02:00 +1°C° 0 mm 1 mps 584 mmHg 32%
    03:00 0°C° 0 mm 1 mps 583 mmHg 32%
    04:00 -1°C° 0 mm 0 mps 583 mmHg 33%
    05:00 -1°C° 0 mm 0 mps 583 mmHg 33%
    06:00 -1°C° 0 mm 0 mps 583 mmHg 33%
    07:00 -1°C° 0 mm 0 mps 583 mmHg 33%
    08:00 -1°C° 0 mm 0 mps 584 mmHg 33%
    09:00 +1°C° 0 mm 0 mps 585 mmHg 28%
    10:00 +4°C° 0 mm 1 mps 586 mmHg 24%
    11:00 +7°C° 0 mm 1 mps 587 mmHg 20%
    12:00 +7°C° 0 mm 1 mps 587 mmHg 19%
    13:00 +8°C° 0 mm 1 mps 586 mmHg 17%
    14:00 +8°C° 0 mm 2 mps 586 mmHg 16%
    15:00 +8°C° 0 mm 1 mps 585 mmHg 19%
    16:00 +7°C° 0 mm 1 mps 585 mmHg 21%
    17:00 +6°C° 0 mm 1 mps 584 mmHg 24%
    18:00 +5°C° 0 mm 1 mps 584 mmHg 25%
    19:00 +2°C° 0 mm 0 mps 584 mmHg 27%
    20:00 +1°C° 0 mm 0 mps 583 mmHg 29%
    21:00 +1°C° 0 mm 0 mps 583 mmHg 29%
    22:00 +1°C° 0 mm 0 mps 583 mmHg 28%
    23:00 +1°C° 0 mm 0 mps 583 mmHg 28%

    22 December, Saturday

    Time Temperature Precipitation Wind Pressure Humidity
    00:00 0°C° 0 mm 0 mps 583 mmHg 28%
    01:00 0°C° 0 mm 0 mps 582 mmHg 28%
    02:00 0°C° 0 mm 0 mps 582 mmHg 27%
    03:00 0°C° 0 mm 0 mps 582 mmHg 27%
    04:00 -1°C° 0 mm 0 mps 581 mmHg 27%
    05:00 -1°C° 0 mm 0 mps 581 mmHg 27%
    06:00 0°C° 0 mm 1 mps 581 mmHg 26%
    07:00 0°C° 0 mm 1 mps 582 mmHg 26%
    08:00 +1°C° 0 mm 1 mps 582 mmHg 25%
    09:00 +3°C° 0 mm 1 mps 583 mmHg 22%
    10:00 +5°C° 0 mm 1 mps 585 mmHg 18%
    11:00 +7°C° 0 mm 1 mps 586 mmHg 15%
    12:00 +8°C° 0 mm 1 mps 586 mmHg 14%
    13:00 +7°C° 0 mm 2 mps 585 mmHg 13%
    14:00 +8°C° 0 mm 2 mps 585 mmHg 13%
    15:00 +7°C° 0 mm 2 mps 584 mmHg 15%
    16:00 +7°C° 0 mm 1 mps 584 mmHg 17%
    17:00 +6°C° 0 mm 1 mps 583 mmHg 20%
    18:00 +5°C° 0 mm 1 mps 583 mmHg 21%
    19:00 +4°C° 0 mm 1 mps 583 mmHg 22%
    20:00 +3°C° 0 mm 1 mps 583 mmHg 23%
    21:00 +2°C° 0 mm 1 mps 583 mmHg 24%
    22:00 +2°C° 0 mm 1 mps 583 mmHg 24%
    23:00 +2°C° 0 mm 1 mps 583 mmHg 24%
    Show more